Location: Santa Maria di Sala
(45.5070°N, 12.0300°E)
Time: 00:43:59
(UTC+02:00)

Altair - All Passes

Search period start: 29 May 2022 00:00
Search period end: 08 June 2022 00:00
Orbit: 1501 x 1683 km, 47.2° (Epoch: 27 May)

Date Brightness Start Highest point End Pass type
(mag) Time Alt. Az. Time Alt. Az. Time Alt. Az.
29 May - 00:18:04 10° WNW 00:26:14 29° SW 00:34:15 10° S visible
29 May - 15:34:12 10° SSW 15:42:59 39° SE 15:52:03 10° ENE daylight
29 May - 17:37:06 10° WSW 17:47:04 82° SSE 17:57:17 10° ENE daylight
29 May - 19:42:08 10° W 19:52:17 81° N 20:02:32 10° E daylight
29 May - 21:47:14 10° WNW 21:57:22 73° SSW 22:07:25 10° SE visible
29 May - 23:52:42 10° WNW 00:01:09 31° SW 00:09:29 10° S visible
30 May - 15:09:18 10° SSW 15:17:53 37° SE 15:26:44 10° ENE daylight
30 May - 17:11:56 10° WSW 17:21:51 80° SSE 17:32:02 10° ENE daylight
30 May - 19:16:54 10° W 19:27:01 81° N 19:37:17 10° E daylight
30 May - 21:22:00 10° WNW 21:32:09 76° SSW 21:42:15 10° ESE visible
30 May - 23:27:21 10° WNW 23:36:03 34° SW 23:44:38 10° SSE visible
31 May - 14:44:27 10° SSW 14:52:48 34° SE 15:01:24 10° ENE daylight
31 May - 16:46:47 10° WSW 16:56:38 77° SSE 17:06:47 10° ENE daylight
31 May - 18:51:39 10° W 19:01:45 81° N 19:12:01 10° E daylight
31 May - 20:56:46 10° WNW 21:06:56 79° SSW 21:17:05 10° ESE daylight
31 May - 23:02:02 10° WNW 23:10:57 36° SW 23:19:46 10° SSE visible
01 Jun - 14:19:38 10° S 14:27:43 31° SE 14:36:01 10° ENE daylight
01 Jun - 16:21:39 10° SW 16:31:26 74° SSE 16:41:32 10° ENE daylight
01 Jun - 18:26:26 10° W 18:36:29 81° N 18:46:44 10° E daylight
01 Jun - 20:31:34 10° WNW 20:41:43 82° SSW 20:51:53 10° ESE daylight
01 Jun - 22:36:44 10° WNW 22:45:50 39° SW 22:54:51 10° SSE visible
02 Jun - 13:54:51 10° S 14:02:39 29° SE 14:10:39 10° ENE daylight
02 Jun - 15:56:32 10° SW 16:06:15 71° SSE 16:16:17 10° ENE daylight
02 Jun - 18:01:12 10° W 18:11:13 82° N 18:21:28 10° E daylight
02 Jun - 20:06:20 10° WNW 20:16:29 84° SSW 20:26:41 10° ESE daylight
02 Jun - 22:11:26 10° WNW 22:20:42 42° SW 22:29:55 10° SSE visible
03 Jun - 00:21:10 10° WSW 00:23:23 11° WSW 00:25:34 10° SW visible
03 Jun - 13:30:08 10° S 13:37:36 26° SE 13:45:14 10° E daylight
03 Jun - 15:31:26 10° SW 15:41:04 67° SSE 15:51:02 10° ENE daylight
03 Jun - 17:35:58 10° W 17:45:58 82° N 17:56:13 10° E daylight
03 Jun - 19:41:07 10° WNW 19:51:15 87° SSW 20:01:27 10° ESE daylight
03 Jun - 21:46:10 10° WNW 21:55:34 45° SW 22:04:57 10° SSE visible
03 Jun - 23:54:36 10° W 23:58:22 13° WSW 00:02:07 10° SW visible
04 Jun - 13:05:28 10° S 13:12:33 24° SE 13:19:48 10° E daylight
04 Jun - 15:06:21 10° SW 15:15:53 64° SSE 15:25:47 10° ENE daylight
04 Jun - 17:10:45 10° W 17:20:42 83° N 17:30:56 10° E daylight
04 Jun - 19:15:53 10° WNW 19:26:00 89° SSW 19:36:15 10° ESE daylight
04 Jun - 21:20:54 10° WNW 21:30:26 48° SW 21:39:57 10° SSE visible
04 Jun - 23:28:33 10° W 23:33:20 14° WSW 23:38:07 10° SSW visible
05 Jun - 12:40:52 10° S 12:47:31 21° SE 12:54:18 10° E daylight
05 Jun - 14:41:17 10° SW 14:50:43 61° SSE 15:00:32 10° ENE daylight
05 Jun - 16:45:32 10° W 16:55:27 84° N 17:05:40 10° E daylight
05 Jun - 18:50:40 10° WNW 19:00:45 89° NNE 19:11:00 10° ESE daylight
05 Jun - 20:55:39 10° WNW 21:05:17 51° SW 21:14:55 10° SE daylight
05 Jun - 23:02:45 10° W 23:08:19 16° SW 23:13:52 10° SSW visible
06 Jun - 12:16:20 10° SSE 12:22:28 19° SE 12:28:45 10° E daylight
06 Jun - 14:16:15 10° SW 14:25:34 57° SE 14:35:16 10° ENE daylight
06 Jun - 16:20:19 10° WSW 16:30:12 86° NNW 16:40:24 10° E daylight
06 Jun - 18:25:26 10° WNW 18:35:30 87° NNE 18:45:45 10° ESE daylight
06 Jun - 20:30:24 10° WNW 20:40:07 55° SW 20:49:52 10° SE daylight
06 Jun - 22:37:05 10° W 22:43:16 18° SW 22:49:28 10° SSW visible
07 Jun - 11:51:53 10° SSE 11:57:27 17° SE 12:03:07 10° E daylight
07 Jun - 13:51:13 10° SW 14:00:26 54° SE 14:10:01 10° ENE daylight
07 Jun - 15:55:07 10° WSW 16:04:57 87° NNW 16:15:08 10° ENE daylight
07 Jun - 18:00:13 10° W 18:10:15 86° NNE 18:20:30 10° ESE daylight
07 Jun - 20:05:10 10° WNW 20:14:57 58° SW 20:24:48 10° SE daylight
07 Jun - 22:11:30 10° W 22:18:13 20° SW 22:24:57 10° S visible
